Home   Weather   Larnaca   Past weeks
Flag for Cyprus

Past Weather in Larnaca, Cyprus — Yesterday and Last 2 Weeks

Now
84 °F

Sunny.


Feels Like: 84 °F
Forecast: 87 / 65 °F
Wind: 14 mph from Southwest

Location: Larnaca Airport

Current Time: May 21, 2019 at 5:47:20 pm

Latest Report: May 21, 2019 at 5:00 pm


Visibility: 10 mi

Pressure: 29.95 "Hg

Humidity: 43%

Dew Point: 59 °F

Location of LarnacaLocation

Past Weather in Larnaca — Graph

°F

Larnaca Temperature Yesterday

Maximum temperature yesterday: 82 °F (at 2:30 pm)
Minimum temperature yesterday: 63 °F (at 5:30 am)
Average temperature yesterday: 73 °F

High & Low Weather Summary for the Past Weeks

 TemperatureHumidityPressure
High90 °F (May 14, 11:00 am)94% (May 7, 1:00 am)30.01 "Hg (May 7, 1:00 am)
Low52 °F (May 8, 5:30 am)17% (May 14, 11:00 am)29.62 "Hg (May 17, 5:30 pm)
Average72 °F62%29.88 "Hg
* Reported May 6 4:00 pm — May 21 4:30 pm, Larnaca. Weather by CustomWeather, © 2019

Note: Actual official high and low records may vary slightly from our data, if they occured in-between our weather recording intervals... More about our weather records

Advertising

Larnaca Weather History for the Previous 24 Hours

Scroll right to see more
 ConditionsComfort  
Time TempWeatherWind HumidityBarometerVisibility
4:30 pm
Tue, May 21
82 °FSunny.16 mph42%29.95 "Hg10 mi
4:00 pm84 °FSunny.15 mph43%29.98 "Hg10 mi
3:30 pm86 °FSunny.15 mph31%29.98 "Hg10 mi
3:00 pm88 °FSunny.18 mph27%29.98 "Hg10 mi
2:30 pm88 °FSunny.15 mph25%29.98 "Hg10 mi
2:00 pm88 °FPassing clouds.16 mph27%29.98 "HgN/A
1:00 pm86 °FSunny.13 mph35%30.01 "Hg10 mi
12:30 pm84 °FPassing clouds.10 mph43%30.01 "HgN/A
12:00 pm82 °FSunny.12 mph45%30.01 "Hg10 mi
11:30 am81 °FSunny.10 mph48%30.01 "Hg10 mi
11:00 am81 °FSunny.9 mph45%30.01 "Hg10 mi
10:30 am81 °FPassing clouds.9 mph48%30.01 "HgN/A
10:00 am81 °FPassing clouds.6 mph45%30.01 "HgN/A
9:30 am81 °FPassing clouds.5 mph45%30.01 "HgN/A
9:00 am81 °FSunny.1 mph42%30.01 "Hg10 mi
8:30 am77 °FSunny.2 mph54%29.98 "Hg10 mi
8:00 am75 °FSunny.2 mph69%29.98 "Hg10 mi
7:30 am72 °FPassing clouds.3 mph83%29.98 "HgN/A
7:00 am68 °FSunny.1 mph88%29.98 "Hg10 mi
6:30 am64 °FPassing clouds.3 mph88%29.98 "HgN/A
6:00 am61 °FSunny.7 mph88%29.98 "Hg10 mi
5:30 am63 °FClear.6 mph88%29.95 "Hg10 mi
5:00 am63 °FClear.2 mph88%29.95 "Hg10 mi
4:30 am64 °FClear.5 mph88%29.95 "Hg10 mi
4:00 am64 °FClear.5 mph88%29.95 "Hg10 mi
3:30 am66 °FClear.5 mph88%29.95 "Hg10 mi
3:00 am70 °FClear.2 mph88%29.95 "Hg10 mi
2:30 am70 °FClear.6 mph88%29.95 "Hg10 mi
2:00 am68 °FPassing clouds.No wind83%29.98 "HgN/A
1:30 am70 °FPassing clouds.2 mph83%29.98 "HgN/A
1:00 am70 °FClear.5 mph83%29.98 "Hg10 mi
12:30 am70 °FClear.5 mph83%29.95 "Hg10 mi
12:00 am70 °FPassing clouds.3 mph83%29.98 "HgN/A
11:30 pm
Mon, May 20
72 °FPassing clouds.6 mph73%29.98 "HgN/A
11:00 pm72 °FPassing clouds.3 mph73%29.95 "HgN/A
10:30 pm73 °FClear.1 mph69%29.98 "Hg10 mi
10:00 pm73 °FClear.5 mph69%29.98 "Hg10 mi
9:30 pm75 °FClear.5 mph61%29.95 "Hg10 mi
9:00 pm77 °FPassing clouds.9 mph54%29.95 "HgN/A
8:30 pm77 °FPassing clouds.8 mph61%29.95 "HgN/A
8:00 pm75 °FClear.5 mph69%29.95 "Hg10 mi
7:30 pm77 °FSunny.7 mph69%29.95 "Hg10 mi
7:00 pm77 °FSunny.6 mph69%29.95 "Hg10 mi
6:30 pm77 °FSunny.7 mph74%29.95 "Hg10 mi
6:00 pm77 °FSunny.10 mph69%29.95 "Hg10 mi
5:30 pm81 °FSunny.15 mph54%29.95 "Hg10 mi
5:00 pm82 °FPassing clouds.14 mph45%29.95 "HgN/A
Weather by CustomWeather, © 2019

See weather overview